Terminal Aerodrome Forecast
Issued by NWS

Home | Current Version | Previous Version | Text Only | Print | Product List | Glossary On
Versions: 1 2 3 4 5 6 7 8 9 10 11 12 13
000
FTUS43 KFGF 240500
TAFDVL
TAF
KDVL 240520Z 2406/2506 12009KT P6SM FEW040
     FM241400 15017KT P6SM BKN120
     FM242200 13014KT P6SM BKN090
      AMD LTD TO CLD VIS AND WIND=

USA.gov is the U.S. government's official web portal to all federal, state and local government web resources and services.